ASA1379 MMSD-KSFO

Flight info

Callsign ASA1379
Flight time N/A
Altitude 38000
Route ANEGO1B ANEGO UL312 ALMUN DCT ZONKY DCT EIREE DCT IKAYE DCT STOKD DCT SERFR SERFR4
Aircraft B38M/M-SDE1FGHILORVWXY/HB1

Departure

Time N/A
Airport Los Cabos International Airport (MMSD)

Arrival

Time 2026-04-30 20:00
Airport San Francisco International Airport (KSFO)
Time Latitude Longitude Altitude Speed Heading
2026-04-30 17:39 24.45067 -111.08055 33695 ft 460 kts 311°
2026-04-30 17:41 24.64174 -111.26042 36498 ft 445 kts 311°
2026-04-30 17:42 24.68855 -111.30460 37114 ft 442 kts 311°
2026-04-30 17:42 24.75833 -111.37054 37895 ft 439 kts 311°
2026-04-30 17:43 24.80454 -111.41427 37915 ft 436 kts 311°
2026-04-30 17:44 24.94217 -111.54478 37937 ft 436 kts 311°
2026-04-30 17:47 25.14893 -111.74157 37934 ft 436 kts 310°
2026-04-30 17:48 25.31043 -111.89386 37933 ft 443 kts 316°
2026-04-30 17:50 25.51342 -112.04907 37932 ft 443 kts 315°
2026-04-30 17:52 25.66538 -112.16535 37934 ft 442 kts 315°
2026-04-30 17:54 25.89266 -112.33997 37937 ft 441 kts 315°
2026-04-30 17:56 26.09431 -112.49559 37935 ft 441 kts 315°
2026-04-30 17:58 26.24527 -112.61253 37942 ft 440 kts 315°
2026-04-30 18:00 26.44573 -112.76840 37951 ft 439 kts 314°
2026-04-30 18:01 26.57063 -112.86585 37966 ft 438 kts 314°
2026-04-30 18:02 26.71226 -112.97668 37962 ft 438 kts 314°
2026-04-30 18:04 26.86183 -113.09410 37974 ft 438 kts 314°
2026-04-30 18:06 27.06048 -113.25065 37989 ft 437 kts 313°
2026-04-30 18:08 27.23445 -113.38834 37992 ft 437 kts 313°
2026-04-30 18:10 27.43281 -113.54594 37994 ft 436 kts 313°
2026-04-30 18:11 27.60612 -113.68424 37998 ft 437 kts 312°
2026-04-30 18:13 27.73007 -113.78348 38012 ft 439 kts 312°
2026-04-30 18:14 27.85459 -113.88345 38002 ft 439 kts 312°
2026-04-30 18:15 28.00401 -114.00378 38006 ft 440 kts 312°
2026-04-30 18:16 28.10671 -114.08101 38024 ft 443 kts 314°
2026-04-30 18:17 28.15804 -114.11936 38004 ft 442 kts 314°
2026-04-30 18:18 28.23507 -114.17701 38009 ft 442 kts 314°
2026-04-30 18:18 28.28650 -114.21555 38007 ft 443 kts 314°
2026-04-30 18:19 28.33788 -114.25411 38004 ft 443 kts 314°
2026-04-30 18:19 28.38922 -114.29268 38007 ft 443 kts 314°
2026-04-30 18:20 28.44056 -114.33129 38010 ft 443 kts 314°
2026-04-30 18:20 28.49153 -114.36967 38004 ft 442 kts 314°
2026-04-30 18:21 28.54283 -114.40834 38012 ft 442 kts 314°
2026-04-30 18:21 28.59401 -114.44697 38011 ft 442 kts 314°
2026-04-30 18:22 28.64561 -114.48596 38026 ft 442 kts 314°
2026-04-30 18:22 28.72236 -114.54405 38007 ft 444 kts 314°
2026-04-30 18:23 28.77378 -114.58303 38006 ft 444 kts 314°
2026-04-30 18:23 28.82523 -114.62208 38001 ft 444 kts 314°
2026-04-30 18:24 28.90238 -114.68071 38011 ft 446 kts 315°
2026-04-30 18:25 28.95416 -114.72012 38005 ft 448 kts 315°
2026-04-30 18:25 29.03191 -114.77939 37999 ft 448 kts 315°
2026-04-30 18:26 29.10959 -114.83872 38021 ft 448 kts 315°
2026-04-30 18:27 29.18751 -114.89834 37994 ft 450 kts 315°
2026-04-30 18:28 29.26547 -114.95810 37997 ft 450 kts 315°
2026-04-30 18:28 29.34346 -115.01799 38042 ft 450 kts 315°
2026-04-30 18:29 29.44800 -115.09846 37984 ft 453 kts 315°
2026-04-30 18:30 29.55265 -115.17922 37984 ft 453 kts 315°
2026-04-30 18:31 29.63168 -115.24033 37974 ft 459 kts 315°
2026-04-30 18:32 29.71110 -115.30187 37985 ft 459 kts 315°
2026-04-30 18:33 29.79055 -115.36355 38027 ft 459 kts 315°
2026-04-30 18:33 29.87061 -115.42583 37990 ft 465 kts 315°
2026-04-30 18:34 29.95055 -115.48814 37986 ft 464 kts 315°
2026-04-30 18:35 30.00404 -115.52990 37993 ft 464 kts 315°
2026-04-30 18:35 30.05766 -115.57182 37997 ft 466 kts 316°
2026-04-30 18:36 30.13828 -115.63495 37996 ft 467 kts 316°
2026-04-30 18:37 30.21863 -115.69799 37999 ft 464 kts 316°
2026-04-30 18:37 30.27209 -115.74000 37998 ft 464 kts 317°
2026-04-30 18:38 30.32551 -115.78204 38010 ft 464 kts 317°
2026-04-30 18:38 30.37889 -115.82409 38012 ft 464 kts 317°
2026-04-30 18:39 30.43220 -115.86614 38010 ft 464 kts 317°
2026-04-30 18:39 30.48558 -115.90830 38023 ft 464 kts 317°
2026-04-30 18:40 30.53881 -115.95028 38014 ft 465 kts 320°
2026-04-30 18:40 30.59565 -115.98695 38012 ft 466 kts 323°
2026-04-30 18:41 30.65210 -116.02379 38019 ft 465 kts 323°
2026-04-30 18:41 30.70841 -116.06083 38021 ft 465 kts 323°
2026-04-30 18:42 30.76437 -116.09770 38017 ft 465 kts 323°
2026-04-30 18:42 30.84877 -116.15341 38016 ft 465 kts 323°
2026-04-30 18:45 31.15669 -116.35763 38019 ft 461 kts 324°
2026-04-30 18:46 31.21246 -116.39478 38019 ft 461 kts 324°
2026-04-30 18:46 31.26815 -116.43194 38018 ft 461 kts 324°
2026-04-30 18:47 31.32385 -116.46914 38021 ft 461 kts 324°
2026-04-30 18:47 31.37957 -116.50641 38019 ft 461 kts 325°
2026-04-30 18:48 31.43519 -116.54367 38015 ft 461 kts 325°
2026-04-30 18:48 31.49084 -116.58100 38034 ft 459 kts 326°
2026-04-30 18:49 31.54600 -116.61805 38041 ft 456 kts 326°
2026-04-30 18:49 31.59173 -116.64881 38015 ft 456 kts 326°
2026-04-30 18:50 31.65601 -116.69210 38009 ft 455 kts 326°
2026-04-30 18:50 31.70170 -116.72292 38012 ft 456 kts 326°
2026-04-30 18:51 31.75665 -116.76002 38008 ft 455 kts 326°
2026-04-30 18:51 31.81147 -116.79709 38006 ft 454 kts 327°
2026-04-30 18:52 31.86621 -116.83415 38008 ft 454 kts 327°
2026-04-30 18:52 31.92090 -116.87124 38004 ft 454 kts 328°
2026-04-30 18:53 31.97523 -116.90813 38005 ft 449 kts 328°
2026-04-30 18:53 32.02927 -116.94487 37998 ft 448 kts 328°
2026-04-30 18:54 32.08320 -116.98159 37998 ft 448 kts 328°
2026-04-30 18:54 32.13708 -117.01833 38001 ft 447 kts 328°
2026-04-30 18:55 32.19091 -117.05509 38002 ft 447 kts 329°
2026-04-30 18:55 32.27161 -117.11027 38000 ft 446 kts 329°
2026-04-30 18:56 32.35221 -117.16550 38000 ft 446 kts 329°
2026-04-30 18:57 32.43243 -117.22058 38001 ft 441 kts 330°
2026-04-30 18:57 32.48551 -117.25713 38002 ft 441 kts 330°
2026-04-30 18:58 32.56172 -117.31708 38004 ft 442 kts 324°
2026-04-30 18:59 32.63638 -117.38084 37999 ft 438 kts 326°
2026-04-30 19:00 32.73522 -117.46493 38000 ft 437 kts 326°
2026-04-30 19:01 32.83314 -117.54846 37999 ft 431 kts 326°
2026-04-30 19:02 32.90624 -117.61096 37993 ft 432 kts 326°
2026-04-30 19:03 33.00370 -117.69449 37975 ft 432 kts 326°
2026-04-30 19:04 33.10134 -117.77841 37987 ft 433 kts 326°
2026-04-30 19:05 33.19864 -117.86227 37985 ft 433 kts 326°
2026-04-30 19:06 33.28831 -117.95939 37968 ft 437 kts 317°
2026-04-30 19:06 33.35252 -118.03720 37982 ft 438 kts 317°
2026-04-30 19:07 33.41630 -118.11471 37971 ft 431 kts 318°
2026-04-30 19:08 33.50019 -118.21690 37995 ft 430 kts 318°
2026-04-30 19:09 33.56300 -118.29362 37984 ft 430 kts 317°
2026-04-30 19:09 33.60484 -118.34482 37988 ft 429 kts 317°
2026-04-30 19:10 33.68796 -118.44676 37984 ft 426 kts 317°
2026-04-30 19:11 33.75009 -118.52316 37970 ft 426 kts 317°
2026-04-30 19:12 33.79143 -118.57407 37976 ft 425 kts 317°
2026-04-30 19:12 33.83273 -118.62503 37980 ft 425 kts 317°
2026-04-30 19:13 33.91502 -118.72676 37975 ft 423 kts 316°
2026-04-30 19:14 33.95601 -118.77756 37979 ft 423 kts 316°
2026-04-30 19:14 33.99675 -118.82811 37980 ft 423 kts 316°
2026-04-30 19:15 34.03766 -118.87894 37974 ft 423 kts 316°
2026-04-30 19:15 34.09908 -118.95538 37972 ft 422 kts 316°
2026-04-30 19:16 34.13981 -119.00641 37978 ft 422 kts 315°
2026-04-30 19:17 34.19945 -119.08516 37984 ft 421 kts 314°
2026-04-30 19:17 34.25890 -119.16351 37994 ft 422 kts 314°
2026-04-30 19:18 34.31806 -119.24166 37989 ft 422 kts 314°
2026-04-30 19:19 34.35764 -119.29403 37984 ft 421 kts 314°
2026-04-30 19:19 34.41689 -119.37259 37982 ft 421 kts 314°
2026-04-30 19:20 34.45639 -119.42506 37979 ft 422 kts 314°
2026-04-30 19:21 34.51549 -119.50371 37963 ft 421 kts 314°
2026-04-30 19:22 34.59435 -119.60894 37993 ft 421 kts 313°
2026-04-30 19:23 34.71227 -119.76689 37992 ft 421 kts 313°
2026-04-30 19:24 34.77115 -119.84603 37991 ft 420 kts 313°
2026-04-30 19:25 34.86899 -119.97796 37992 ft 420 kts 313°
2026-04-30 19:26 34.94713 -120.08366 38002 ft 420 kts 312°
2026-04-30 19:27 35.00564 -120.16303 38010 ft 419 kts 312°
2026-04-30 19:28 35.06409 -120.24251 38009 ft 419 kts 312°
2026-04-30 19:29 35.14190 -120.34859 38022 ft 419 kts 312°
2026-04-30 19:30 35.21939 -120.45456 38015 ft 419 kts 312°
2026-04-30 19:31 35.29702 -120.56106 38010 ft 419 kts 311°
2026-04-30 19:31 35.35520 -120.64108 38013 ft 419 kts 311°
2026-04-30 19:32 35.39395 -120.69448 38010 ft 419 kts 311°
2026-04-30 19:32 35.43273 -120.74798 38028 ft 420 kts 311°
2026-04-30 19:33 35.47151 -120.80145 38048 ft 420 kts 313°
2026-04-30 19:33 35.51616 -120.84741 38050 ft 420 kts 321°
2026-04-30 19:34 35.56246 -120.89124 38048 ft 420 kts 322°
2026-04-30 19:35 35.63210 -120.95611 38036 ft 420 kts 322°
2026-04-30 19:35 35.67867 -120.99946 38025 ft 420 kts 321°
2026-04-30 19:35 35.70200 -121.02120 37837 ft 419 kts 321°
2026-04-30 19:36 35.72516 -121.04279 37588 ft 418 kts 322°
2026-04-30 19:36 35.74838 -121.06446 37357 ft 418 kts 322°
2026-04-30 19:36 35.79482 -121.10784 36878 ft 419 kts 322°
2026-04-30 19:37 35.81806 -121.12957 36647 ft 420 kts 322°
2026-04-30 19:37 35.84137 -121.15140 36418 ft 421 kts 322°
2026-04-30 19:37 35.86469 -121.17323 36187 ft 421 kts 322°
2026-04-30 19:37 35.88799 -121.19507 35958 ft 422 kts 322°
2026-04-30 19:38 35.90380 -121.20990 35804 ft 422 kts 322°
2026-04-30 19:38 35.92714 -121.23181 35591 ft 422 kts 322°
2026-04-30 19:38 35.95054 -121.25378 35365 ft 423 kts 322°
2026-04-30 19:38 35.97394 -121.27579 35147 ft 423 kts 322°
2026-04-30 19:39 35.99703 -121.29751 34928 ft 423 kts 322°
2026-04-30 19:39 36.02048 -121.31958 34714 ft 424 kts 322°
2026-04-30 19:39 36.04395 -121.34168 34498 ft 424 kts 322°
2026-04-30 19:39 36.06761 -121.36346 34289 ft 425 kts 326°
2026-04-30 19:40 36.09289 -121.38259 34071 ft 425 kts 327°
2026-04-30 19:40 36.11800 -121.40189 33843 ft 426 kts 327°
2026-04-30 19:40 36.14306 -121.42140 33597 ft 426 kts 326°
2026-04-30 19:40 36.16795 -121.44088 32928 ft 423 kts 327°
2026-04-30 19:41 36.19303 -121.46056 31728 ft 430 kts 327°
2026-04-30 19:41 36.21846 -121.48056 30670 ft 436 kts 327°
2026-04-30 19:41 36.24416 -121.50077 29764 ft 439 kts 327°
2026-04-30 19:41 36.26989 -121.52103 28854 ft 438 kts 327°
2026-04-30 19:42 36.29555 -121.54125 28171 ft 434 kts 327°
2026-04-30 19:42 36.32093 -121.56126 27496 ft 429 kts 327°
2026-04-30 19:42 36.34608 -121.58112 26800 ft 431 kts 327°
2026-04-30 19:42 36.37142 -121.60113 26122 ft 433 kts 327°
2026-04-30 19:43 36.39677 -121.62117 25453 ft 431 kts 327°
2026-04-30 19:43 36.42192 -121.64106 25054 ft 423 kts 327°
2026-04-30 19:43 36.44635 -121.66041 24804 ft 411 kts 327°
2026-04-30 19:44 36.49325 -121.69755 24287 ft 390 kts 328°
2026-04-30 19:44 36.51613 -121.71561 23736 ft 390 kts 328°
2026-04-30 19:44 36.53894 -121.73363 23174 ft 388 kts 328°
2026-04-30 19:44 36.56162 -121.75155 22641 ft 384 kts 328°
2026-04-30 19:45 36.58403 -121.76928 22177 ft 380 kts 328°
2026-04-30 19:45 36.60600 -121.78667 21721 ft 377 kts 328°
2026-04-30 19:45 36.62828 -121.80433 21236 ft 374 kts 328°
2026-04-30 19:45 36.65011 -121.82163 20764 ft 371 kts 328°
2026-04-30 19:46 36.67150 -121.83860 20321 ft 368 kts 328°
2026-04-30 19:46 36.69333 -121.85592 19876 ft 365 kts 328°
2026-04-30 19:46 36.71437 -121.87264 19450 ft 363 kts 328°
2026-04-30 19:46 36.73579 -121.88910 18990 ft 361 kts 334°
2026-04-30 19:47 36.75963 -121.89853 18502 ft 360 kts 348°
2026-04-30 19:47 36.77604 -121.90325 18179 ft 358 kts 346°
2026-04-30 19:47 36.80815 -121.91259 17517 ft 357 kts 347°
2026-04-30 19:47 36.83227 -121.91944 17000 ft 356 kts 347°
2026-04-30 19:48 36.85640 -121.92623 16515 ft 355 kts 347°
2026-04-30 19:48 36.88043 -121.93297 16040 ft 353 kts 347°
2026-04-30 19:48 36.90441 -121.93968 15570 ft 352 kts 347°
2026-04-30 19:48 36.92830 -121.94636 15095 ft 351 kts 347°
2026-04-30 19:49 36.95203 -121.95339 14618 ft 350 kts 343°
2026-04-30 19:49 36.99848 -121.97187 13665 ft 350 kts 342°
2026-04-30 19:49 37.02171 -121.98095 13164 ft 349 kts 343°
2026-04-30 19:50 37.04480 -121.98993 12691 ft 347 kts 343°
2026-04-30 19:50 37.06780 -121.99885 12227 ft 345 kts 343°
2026-04-30 19:50 37.09073 -122.00774 11775 ft 344 kts 343°
2026-04-30 19:50 37.11353 -122.01658 11316 ft 343 kts 343°
2026-04-30 19:51 37.13626 -122.02540 10855 ft 342 kts 343°
2026-04-30 19:51 37.15894 -122.03421 10399 ft 340 kts 343°
2026-04-30 19:51 37.18149 -122.04297 9946 ft 339 kts 343°
2026-04-30 19:51 37.20395 -122.05170 9428 ft 336 kts 344°
2026-04-30 19:52 37.22606 -122.06031 8982 ft 328 kts 343°
2026-04-30 19:52 37.24759 -122.06868 8543 ft 321 kts 343°
2026-04-30 19:52 37.26866 -122.07688 8120 ft 314 kts 343°
2026-04-30 19:52 37.28921 -122.08496 7706 ft 307 kts 343°
2026-04-30 19:53 37.30944 -122.09293 7276 ft 302 kts 343°
2026-04-30 19:53 37.32938 -122.10079 6888 ft 297 kts 343°
2026-04-30 19:53 37.34896 -122.10851 6493 ft 293 kts 343°
2026-04-30 19:53 37.36823 -122.11611 6091 ft 288 kts 343°
2026-04-30 19:54 37.38726 -122.12290 5766 ft 281 kts 345°
2026-04-30 19:54 37.40588 -122.12926 5473 ft 274 kts 345°
2026-04-30 19:54 37.42395 -122.13549 5186 ft 266 kts 345°
2026-04-30 19:54 37.44161 -122.14162 4899 ft 260 kts 346°
2026-04-30 19:55 37.45884 -122.14742 4632 ft 252 kts 346°
2026-04-30 19:55 37.47558 -122.15293 4337 ft 246 kts 346°
2026-04-30 19:55 37.49178 -122.15827 4065 ft 234 kts 346°
2026-04-30 19:55 37.50711 -122.16334 3795 ft 222 kts 345°
2026-04-30 19:56 37.52171 -122.16817 3558 ft 211 kts 345°
2026-04-30 19:56 37.53419 -122.17623 3280 ft 198 kts 321°
2026-04-30 19:56 37.54302 -122.18872 3006 ft 190 kts 304°
2026-04-30 19:56 37.54941 -122.20311 2752 ft 182 kts 297°
2026-04-30 19:57 37.55486 -122.21702 2510 ft 178 kts 297°
2026-04-30 19:57 37.56055 -122.23078 2271 ft 176 kts 297°
2026-04-30 19:57 37.56629 -122.24452 2039 ft 173 kts 297°
2026-04-30 19:57 37.57166 -122.25732 1822 ft 162 kts 296°
2026-04-30 19:58 37.57683 -122.26962 1597 ft 156 kts 296°
2026-04-30 19:58 37.58184 -122.28156 1412 ft 150 kts 296°
2026-04-30 19:58 37.58652 -122.29275 1258 ft 142 kts 296°
2026-04-30 19:58 37.59107 -122.30358 1029 ft 138 kts 296°
2026-04-30 19:59 37.59556 -122.31434 833 ft 139 kts 296°
2026-04-30 19:59 37.60005 -122.32508 664 ft 136 kts 296°
2026-04-30 19:59 37.60881 -122.34589 286 ft 135 kts 297°
2026-04-30 20:00 37.61319 -122.35630 99 ft 133 kts 297°
2026-04-30 20:00 37.61731 -122.36615 26 ft 111 kts 297°
2026-04-30 20:00 37.62016 -122.37295 26 ft 67 kts 298°
2026-04-30 20:00 37.62172 -122.37669 26 ft 31 kts 297°
2026-04-30 20:01 37.62228 -122.38067 24 ft 15 kts 269°
2026-04-30 20:01 37.62228 -122.38198 27 ft 16 kts 265°
2026-04-30 20:01 37.62159 -122.38300 24 ft 13 kts 214°
2026-04-30 20:02 37.61998 -122.38276 23 ft 15 kts 118°
2026-04-30 20:02 37.61945 -122.38152 27 ft 17 kts 118°
2026-04-30 20:03 37.61755 -122.37945 24 ft 21 kts 178°
2026-04-30 20:03 37.61615 -122.37995 26 ft 21 kts 208°
2026-04-30 20:03 37.61477 -122.38088 23 ft 24 kts 207°
2026-04-30 20:03 37.61324 -122.38189 26 ft 26 kts 208°
2026-04-30 20:04 37.61158 -122.38299 24 ft 28 kts 208°
2026-04-30 20:04 37.61049 -122.38371 23 ft 15 kts 207°
2026-04-30 20:04 37.60957 -122.38451 25 ft 17 kts 215°
2026-04-30 20:05 37.60897 -122.38593 24 ft 10 kts 296°
2026-04-30 20:05 37.60933 -122.38679 23 ft 12 kts 298°
2026-04-30 20:05 37.61049 -122.38812 23 ft 13 kts 23°
2026-04-30 20:06 37.61137 -122.38756 26 ft 16 kts 28°
2026-04-30 20:06 37.61235 -122.38692 24 ft 11 kts 27°
2026-04-30 20:06 37.61285 -122.38661 23 ft 7 kts 15°
2026-04-30 20:06 37.61313 -122.38669 25 ft 3 kts 322°
2026-04-30 20:07 37.61329 -122.38681 24 ft 2 kts 354°
2026-04-30 20:07 37.61346 -122.38672 24 ft 4 kts 27°
2026-04-30 20:07 37.61379 -122.38650 23 ft 0 kts 30°